Location: Clermont
(50.2608°N, 4.3172°E)
Time: 00:00:08
(UTC+00:00)

Cosmos 2082 Rocket - Pass Details

Date: 13 August 2020
Orbit: 835 x 852 km, 71.0° (Epoch: 23 September)

Event Time Altitude Azimuth Distance (km) Brightness Sun altitude
Rises 20:33:17 0° 217° (SW) 3,401 5.3 -12.7°
Reaches altitude 10° 20:35:45 10° 220° (SW) 2,468 4.6 -13.0°
Maximum altitude 20:41:23 66° 302° (WNW) 920 2.6 -13.7°
Drops below altitude 10° 20:47:02 10° 26° (NNE) 2,471 4.9 -14.3°
Sets 20:49:31 0° 29° (NNE) 3,407 5.6 -14.6°
